Regional Weather Roundup
Issued by NWS

Home | Current Version | Previous Version | Graphics & Text | Print | Product List | Glossary On
Versions: 1 2 3 4 5 6 7 8 9 10 11 12 13 14 15 16 17 18 19 20 21 22 23 24 25 26 27 28 29 30 31 32 33 34 35 36 37 38 39 40 41 42 43 44 45 46 47 48 49 50
000
ASUS45 KTFX 050110
RWRMT
MONTANA REGIONAL WEATHER ROUNDUP
NATIONAL WEATHER SERVICE GREAT FALLS MT
700 PM MDT TUE AUG 04 2015

NOTE: "FAIR" INDICATES FEW OR NO CLOUDS BELOW 12000 FEET WITH NO
SIGNIFICANT WEATHER AND/OR OBSTRUCTIONS TO VISIBILITY.

MTZ001>007-043-050200-
WEST OF THE DIVIDE

CITY           SKY/WX    TMP DP  RH WIND       PRES   REMARKS
KALISPELL      CLEAR     82  44  26 SE8       29.85F
MISSOULA       FAIR      84  40  21 NW13      29.88F
BUTTE          LGT RAIN  73  44  35 W5        30.05R
MULLAN PASS    SUNNY     67  35  30 SW7       30.08F
DEER LODGE       N/A     81  41  24 NW7       30.01S
EUREKA           N/A     88  34  14 SW9G16    29.82F
HAMILTON         N/A     73  43  33 N14       29.93R
LIBBY            N/A     84  37  18 W6        29.85S
$$

MTZ008-052>055-050200-
SOUTHWEST MONTANA

CITY           SKY/WX    TMP DP  RH WIND       PRES   REMARKS
BOZEMAN        MOSUNNY   75  51  43 SE14      30.01S
DILLON         MOSUNNY   77  51  40 NE12      29.99S
W YELLOWSTONE  PTSUNNY   59  48  67 SE7       30.20S
$$

MTZ009-010-012-014-046-048-049-054-050200-
EAST SLOPES AND CENTRAL MONTANA

CITY           SKY/WX    TMP DP  RH WIND       PRES   REMARKS
CUT BANK       MOSUNNY   77  39  25 W22G38    29.90S
GREAT FALLS    CLOUDY    77  50  38 N14       29.93R
MALMSTROM AFB  CLOUDY    72  54  51 N8G18     29.93R
HELENA         MOSUNNY   81  48  31 E13       29.92S
$$

MTZ011-013-016-021-045-047-050-051-050200-
NORTH CENTRAL MONTANA

CITY           SKY/WX    TMP DP  RH WIND       PRES   REMARKS
HAVRE          PTSUNNY   80  52  37 SW5       29.85S
LEWISTOWN      CLOUDY    70  50  49 SW10      29.96F
CHINOOK          N/A     81  54  39 SE3       29.84S
FORT BENTON      N/A     79  54  41 SE7       29.88R
$$

MTZ017>020-022>027-061-062-050200-
NORTHEAST MONTANA

CITY           SKY/WX    TMP DP  RH WIND       PRES   REMARKS
GLASGOW        CLOUDY    73  60  63 NE7       29.85R
JORDAN           N/A     82  50  32 N20G28    29.85S
SIDNEY         CLOUDY   N/A N/A N/A SE8       29.84S
WOLF POINT     CLOUDY    78  59  51 NW10      29.84S
PLENTYWOOD       N/A     84  54  34 E12       29.87S
POPLAR           N/A     81  55  41 W14G22    29.85R
$$

MTZ028>42-056>058-050200-
SOUTHCENTRAL AND SOUTHEAST MONTANA

CITY           SKY/WX    TMP DP  RH WIND       PRES   REMARKS
BAKER          CLOUDY    83  57  41 S15       29.91R
BILLINGS       MOSUNNY   77  50  38 NW12      30.00R
LIVINGSTON     CLOUDY    72  47  40 SE13      30.03F
MILES CITY     CLOUDY    76  58  53 E8        29.89R
FORSYTH          N/A     79  54  41 W10       29.92R
LAUREL           N/A     76  50  40 W14       29.99S
$$

REGIONAL REPORTS...DAKOTAS

CITY           SKY/WX    TMP DP  RH WIND       PRES   REMARKS
WILLISTON      PTSUNNY   86  55  34 SE12      29.87S
MINOT          MOSUNNY   75  52  44 E8        29.94S
DICKINSON      MOSUNNY   78  56  46 SE12      29.91S
CROSBY         FAIR      75  54  46 E12       29.92R
BISMARCK       MOSUNNY   81  59  47 SE7       29.93R
GRAND FORKS    CLEAR     73  55  53 N5        30.00R
FARGO          CLEAR     76  54  46 NE7       29.98S
BUFFALO SD       N/A     80  61  52 SE10      29.88R
RAPID CITY     PTSUNNY   79  61  53 S8        29.95R
$$

REGIONAL REPORTS...WYOMING/IDAHO/WASHINGTON

CITY           SKY/WX    TMP DP  RH WIND       PRES   REMARKS
GILLETTE       CLOUDY    69  59  70 N5        30.03R
SHERIDAN       MOSUNNY   76  53  44 NW6       30.00R
BUFFALO WY     PTSUNNY   73  55  53 NW12      30.06R
CODY           MOSUNNY   70  54  56 N5        30.07F
YELLOWSTONE LA   N/A     50  47  89 VRB5      30.32R
IDAHO FALLS    PTSUNNY   79  49  34 E10       30.02F
SALMON         MOSUNNY   84  43  23 CALM      29.87S
BOISE          SUNNY     91  42  18 CALM      29.88S
SPOKANE        MOSUNNY   85  38  18 W16       29.84F
$$

REGIONAL REPORTS...ALBERTA

CITY           SKY/WX    TMP DP  RH WIND       PRES   REMARKS
EDMONTON       SUNNY     68  55  64 N13       29.89S
CALGARY        LGT RAIN  55  52  88 NW14      29.98R
LETHBRIDGE     MOSUNNY   81  50  34 E8        29.83F
MEDICINE HAT   CLOUDY    84  54  34 W7        29.81F
WATERTON GATE    N/A     72  46  40 SW8         N/A
CARDSTON         N/A     82  43  24 S6          N/A
MILK RIVER       N/A     81  46  30 S3          N/A
ONEFOUR          N/A     79  46  31 N3          N/A
$$

REGIONAL REPORTS...SASKATCHEWAN

CITY           SKY/WX    TMP DP  RH WIND       PRES   REMARKS
SWIFT CURRENT  CLOUDY    77  54  44 W8        29.84R
REGINA         CLOUDY    77  54  44 E18G24    29.87F
SASKATOON      TSTM      66  63  88 E15       29.84S
CYPRESS HILLS    N/A     70  54  56 SW3         N/A
VAL MARIE        N/A     77  50  38 NW5         N/A
ROCKGLEN         N/A     66  59  77 SW9         N/A
ASSINIBOIA       N/A     64  59  82 NE9         N/A
$$



USA.gov is the U.S. government's official web portal to all federal, state and local government web resources and services.